Location: Newark
(35.2672°N, 80.7344°W)
Time: 23:12:50
(UTC+00:00)

N. Korean satellite - Visible Passes

Search period start: 27 January 2021 00:00
Search period end: 06 February 2021 00:00
Orbit: 452 x 502 km, 97.2° (Epoch: 27 January)

Date Brightness Start Highest point End Pass type
(mag) Time Alt. Az. Time Alt. Az. Time Alt. Az.
27 Jan 8.7 10:12:21 10° NE 10:15:14 25° E 10:18:05 10° SSE visible
27 Jan 8.2 11:46:31 10° NW 11:48:17 14° WNW 11:50:03 10° W visible
28 Jan 9.9 09:47:35 10° ENE 09:48:29 11° E 09:49:24 10° ESE visible
28 Jan 7.2 11:18:51 10° NNW 11:21:53 30° WNW 11:24:53 10° SW visible
29 Jan 6.2 10:51:56 10° N 10:55:22 77° WNW 10:58:44 10° SSW visible
30 Jan 7.8 10:25:31 10° NNE 10:28:45 39° E 10:31:56 10° S visible
31 Jan 9.4 09:59:46 10° NE 10:02:02 17° E 10:04:17 10° SE visible
31 Jan 7.8 11:32:42 10° NNW 11:35:15 20° WNW 11:37:46 10° WSW visible
01 Feb 6.6 11:05:29 10° N 11:08:46 46° WNW 11:12:01 10° SSW visible
02 Feb 6.8 10:38:47 10° NNE 10:42:11 65° E 10:45:33 10° S visible
03 Feb 8.7 10:12:36 10° NE 10:15:29 25° E 10:18:21 10° SSE visible
03 Feb 8.2 11:46:51 10° NW 11:48:32 13° WNW 11:50:14 10° W visible
04 Feb 9.9 09:47:43 10° ENE 09:48:42 11° E 09:49:43 10° ESE visible
04 Feb 7.2 11:19:05 10° NNW 11:22:05 29° WNW 11:25:05 10° SW visible
05 Feb 6.2 10:52:08 10° N 10:55:32 76° WNW 10:58:55 10° SSW visible
